Regional Weather Roundup
Issued by NWS Charleston, WV

Home | Current Version | Previous Version | Graphics & Text | Print | Product List | Glossary On
Versions: 1 2 3 4 5 6 7 8 9 10 11 12 13 14 15 16 17 18 19 20 21 22 23 24 25 26 27 28 29 30 31 32 33 34 35 36 37 38 39 40 41 42 43 44 45 46 47 48 49 50
000
ASUS41 KRLX 030810
RWRRLX
West Virginia Regional Weather Roundup
National Weather Service Charleston WV
400 AM EDT THU SEP 03 2015

Note: "fair" indicates few or no clouds below 12,000 feet with no
significant weather and/or obstructions to visibility.

WVZ003-030900-
Northern Panhandle of West Virginia

CITY           SKY/WX    TMP DP  RH WIND       PRES   REMARKS
WHEELING       MOCLDY    70  65  84 NE6       30.00S
$$

WVZ009-030900-
Northwest West Virginia

CITY           SKY/WX    TMP DP  RH WIND       PRES   REMARKS
PARKERSBURG    PTCLDY    67  66  97 CALM      30.02F FOG
$$

WVZ006-030900-
Western West Virginia

CITY           SKY/WX    TMP DP  RH WIND       PRES   REMARKS
HUNTINGTON     FOG       67  67 100 CALM      30.01S VSB 1
$$

WVZ015-030900-
West Central West Virginia

CITY           SKY/WX    TMP DP  RH WIND       PRES   REMARKS
CHARLESTON     CLEAR     67  66  97 W3        30.02R FOG
$$

WVZ022-031-030900-
North Central West Virginia

CITY           SKY/WX    TMP DP  RH WIND       PRES   REMARKS
CLARKSBURG     CLEAR     63  63 100 CALM      30.01F FOG
MORGANTOWN     CLEAR     69  63  81 CALM      30.03R
$$

WVZ025-035-042-045-030900-
Southern West Virginia

CITY           SKY/WX    TMP DP  RH WIND       PRES   REMARKS
BECKLEY        CLEAR     63  60  90 CALM      30.09S FOG
LOGAN          FOG       66  66 100 CALM      30.05S VSB 1
BLUEFIELD      CLEAR     66  60  81 W5        30.11F
LEWISBURG      FOG       63  61  94 CALM      30.07S VSB 1/4
$$

WVZ047-030900-
Northern Mountains of West Virginia

CITY           SKY/WX    TMP DP  RH WIND       PRES   REMARKS
ELKINS         CLOUDY    61  59  93 S3        30.07S FOG
$$

WVZ052-030900-
Eastern Panhandle of West Virginia

CITY           SKY/WX    TMP DP  RH WIND       PRES   REMARKS
MARTINSBURG    CLEAR     64  63  96 CALM      29.95S FOG
PETERSBURG     FOG       64  64 100 CALM      30.00S VSB 1/4
$$



USA.gov is the U.S. government's official web portal to all federal, state and local government web resources and services.